Weather History for Whidbey Island, WA

Change the Weather History Date:

Tuesday, August 7, 2012

  Actual Average Record
Temperature  
Mean Temperature 60 °F -  
Max Temperature 64 °F 65 °F 71 °F (1996)
Min Temperature 55 °F 50 °F 48 °F (1996)
Degree Days  
Heating Degree Days 6    
Growing Degree Days 10 (Base 50)    
Moisture  
Dew Point 55 °F    
Average Humidity 86    
Maximum Humidity 90    
Minimum Humidity 80    
Precipitation  
Precipitation 0.02 in - - ()
Sea Level Pressure  
Sea Level Pressure 30.08 in    
Wind  
Wind Speed 7 mph (SW)    
Max Wind Speed 13 mph    
Max Gust Speed -    
Visibility 8 miles    
Events Rain    
Averages and records for this station are not official NWS values.
T = Trace of Precipitation, MM = Missing Value Source: NWS Daily Summary

Daily Weather History Graph

Daily Weather History Graph

Search for Another Location

Airport:

Trip Planner

Search our weather history database for the weather conditions in past years. The results will help you decide how hot, cold, wet, or windy it might be!

Date:

Astronomy

Aug. 07, 2012 Rise Set
Actual Time 5:54 AM PDT 8:37 PM PDT
Civil Twilight 5:18 AM PDT 9:12 PM PDT
Nautical Twilight 4:33 AM PDT 9:57 PM PDT
Astronomical Twilight 3:39 AM PDT 10:51 PM PDT
Moon 10:43 PM PDT (8/7) 12:23 PM PDT (8/7)
Length of Visible Light 15h 54m
Length of Day
14h 42m
Waning Gibbous, 69% of the Moon is Illuminated
Aug 7
Waning Gibbous
Aug 9
Last Quarter
Aug 17
New
Aug 24
First Quarter
Aug 31
Full

Hourly Weather History & Observations

Time (PDT) Temp. Dew Point Humidity Pressure Visibility Wind Dir Wind Speed Gust Speed Precip Events Conditions
12:56 AM 55.9 °F 52.0 °F 87% 30.09 in 10.0 mi SSW 4.6 mph - N/A   Clear
1:35 AM 55.4 °F 51.8 °F 88% 30.08 in 8.0 mi SSW 5.8 mph - N/A   Scattered Clouds
1:56 AM 55.0 °F 52.0 °F 89% 30.09 in 6.0 mi SSW 8.1 mph - N/A   Mostly Cloudy
2:56 AM 55.0 °F 52.0 °F 89% 30.10 in 6.0 mi SSW 6.9 mph - N/A   Mostly Cloudy
3:56 AM 57.0 °F 53.1 °F 87% 30.11 in 7.0 mi SW 9.2 mph - N/A   Mostly Cloudy
4:56 AM 57.0 °F 54.0 °F 89% 30.11 in 7.0 mi SW 12.7 mph - N/A   Scattered Clouds
5:56 AM 57.0 °F 54.0 °F 89% 30.11 in 7.0 mi SW 8.1 mph - N/A   Scattered Clouds
6:05 AM 57.2 °F 53.6 °F 88% 30.10 in 6.0 mi SW 9.2 mph - N/A   Mostly Cloudy
6:56 AM 57.9 °F 55.0 °F 90% 30.10 in 6.0 mi WSW 9.2 mph - N/A   Overcast
7:56 AM 57.9 °F 55.0 °F 90% 30.11 in 8.0 mi WSW 8.1 mph - N/A   Overcast
8:41 AM 59.0 °F 55.4 °F 88% 30.09 in 8.0 mi WSW 6.9 mph - N/A   Overcast
8:56 AM 60.1 °F 57.0 °F 90% 30.10 in 8.0 mi WSW 6.9 mph - N/A   Overcast
9:56 AM 60.1 °F 57.0 °F 90% 30.10 in 8.0 mi West 5.8 mph - N/A   Overcast
10:56 AM 60.1 °F 55.9 °F 86% 30.10 in 8.0 mi WSW 5.8 mph - N/A   Overcast
11:56 AM 62.1 °F 57.9 °F 86% 30.09 in 8.0 mi WSW 6.9 mph - N/A   Overcast
12:56 PM 62.1 °F 57.0 °F 84% 30.07 in 8.0 mi WSW 9.2 mph - N/A   Overcast
1:46 PM 60.8 °F 55.4 °F 82% 30.05 in 8.0 mi WSW 5.8 mph - N/A   Overcast
1:49 PM 60.8 °F 55.4 °F 82% 30.05 in 8.0 mi WSW 5.8 mph - N/A   Overcast
1:56 PM 62.1 °F 57.0 °F 84% 30.07 in 8.0 mi WSW 6.9 mph - N/A   Overcast
2:56 PM 63.0 °F 57.0 °F 81% 30.06 in 10.0 mi WSW 8.1 mph - N/A   Overcast
3:54 PM 62.6 °F 57.2 °F 82% 30.05 in 10.0 mi SW 10.4 mph - N/A   Overcast
3:56 PM 63.0 °F 57.0 °F 81% 30.06 in 10.0 mi SW 10.4 mph - N/A   Overcast
4:56 PM 64.0 °F 57.9 °F 80% 30.06 in 10.0 mi SW 6.9 mph - N/A   Overcast
5:56 PM 62.1 °F 55.9 °F 80% 30.06 in 9.0 mi SSW 8.1 mph - 0.01 in Rain Light Rain
6:56 PM 59.0 °F 55.0 °F 87% 30.06 in 8.0 mi SW 9.2 mph - 0.01 in Rain Light Rain
7:26 PM 59.0 °F 55.4 °F 88% 30.05 in 10.0 mi SW 9.2 mph - 0.00 in   Overcast
7:56 PM 57.9 °F 54.0 °F 87% 30.06 in 10.0 mi SW 9.2 mph - 0.00 in   Overcast
8:56 PM 57.9 °F 54.0 °F 87% 30.07 in 10.0 mi SW 5.8 mph - N/A   Overcast
9:56 PM 57.9 °F 53.1 °F 84% 30.09 in 10.0 mi SW 6.9 mph - N/A   Overcast
10:56 PM 57.9 °F 53.1 °F 84% 30.09 in 10.0 mi SW 6.9 mph - N/A   Overcast
11:56 PM 57.9 °F 53.1 °F 84% 30.09 in 10.0 mi SW 5.8 mph - N/A   Overcast